Mount Vernon, IL

4:37 AM CST on January 19, 2018 (GMT -0600)
Mount Vernon

Weather History for KMVN - December, 2010

Change the Weather History Date:

Tuesday, December 7, 2010

  Actual Average Record
Temperature  
Mean Temperature 22 °F -  
Max Temperature 28 °F 44 °F 62 °F (2004)
Min Temperature 15 °F 29 °F 8 °F (2013)
Degree Days  
Heating Degree Days 44    
Moisture  
Dew Point 10 °F    
Average Humidity 63    
Maximum Humidity 86    
Minimum Humidity 47    
Precipitation  
Precipitation 0.00 in - - ()
Sea Level Pressure  
Sea Level Pressure 30.23 in    
Wind  
Wind Speed 4 mph (NNW)    
Max Wind Speed 8 mph    
Max Gust Speed 16 mph    
Visibility 10 miles    
Events      
Averages and records for this station are not official NWS values.
T = Trace of Precipitation, MM = Missing Value Source: NWS Daily Summary

Daily Weather History Graph

Daily Weather History Graph

Search for Another Location

Airport or City:

Trip Planner

Search our weather history database for the weather conditions in past years. The results will help you decide how hot, cold, wet, or windy it might be!

Date:

Astronomy

Dec. 07, 2010 Rise Set
Actual Time 6:58 AM CST 4:34 PM CST
Civil Twilight 6:29 AM CST 5:04 PM CST
Nautical Twilight 5:56 AM CST 5:37 PM CST
Astronomical Twilight 5:24 AM CST 6:09 PM CST
Moon 8:44 AM CST (12/7) 6:33 PM CST (12/7)
Length of Visible Light 10h 34m
Length of Day
9h 35m
Waxing Crescent, 5% of the Moon is Illuminated
Dec 7
Waxing Crescent
Dec 13
First Quarter
Dec 21
Full
Dec 27
Last Quarter
Jan 4
New

Hourly Weather History & Observations

Time (CST) Temp. Windchill Dew Point Humidity Pressure Visibility Wind Dir Wind Speed Gust Speed Precip Events Conditions
12:15 AM 24.8 °F 16.9 °F 12.2 °F 59% 30.18 in 10.0 mi North 6.9 mph - N/A   Overcast
12:35 AM 21.2 °F 12.6 °F 10.4 °F 63% 30.19 in 10.0 mi North 6.9 mph - N/A   Overcast
1:15 AM 21.2 °F 14.9 °F 10.4 °F 63% 30.18 in 10.0 mi North 4.6 mph - N/A   Overcast
1:35 AM 21.2 °F 14.9 °F 10.4 °F 63% 30.19 in 10.0 mi NNW 4.6 mph - N/A   Overcast
1:55 AM 21.2 °F 12.6 °F 10.4 °F 63% 30.19 in 10.0 mi North 6.9 mph - N/A   Overcast
2:15 AM 21.2 °F 14.9 °F 10.4 °F 63% 30.19 in 10.0 mi NW 4.6 mph - N/A   Overcast
2:35 AM 21.2 °F 13.6 °F 12.2 °F 68% 30.20 in 10.0 mi North 5.8 mph - N/A   Overcast
2:55 AM 21.2 °F 12.6 °F 10.4 °F 63% 30.19 in 10.0 mi North 6.9 mph 16.1 mph N/A   Overcast
3:15 AM 19.4 °F 12.8 °F 10.4 °F 68% 30.20 in 10.0 mi North 4.6 mph - N/A   Overcast
3:35 AM 19.4 °F 12.8 °F 8.6 °F 63% 30.20 in 10.0 mi NNW 4.6 mph - N/A   Overcast
3:55 AM 19.4 °F 14.3 °F 8.6 °F 63% 30.20 in 10.0 mi North 3.5 mph - N/A   Overcast
4:15 AM 19.4 °F 14.3 °F 8.6 °F 63% 30.20 in 10.0 mi NNE 3.5 mph - N/A   Overcast
4:35 AM 19.4 °F 12.8 °F 8.6 °F 63% 30.19 in 10.0 mi North 4.6 mph - N/A   Overcast
4:55 AM 19.4 °F 14.3 °F 8.6 °F 63% 30.20 in 10.0 mi North 3.5 mph - N/A   Overcast
5:15 AM 17.6 °F 12.3 °F 8.6 °F 68% 30.19 in 10.0 mi NNE 3.5 mph - N/A   Mostly Cloudy
5:35 AM 17.6 °F - 8.6 °F 68% 30.20 in 10.0 mi Calm Calm - N/A   Partly Cloudy
5:55 AM 17.6 °F - 8.6 °F 68% 30.20 in 10.0 mi Calm Calm - N/A   Clear
6:15 AM 17.6 °F - 8.6 °F 68% 30.21 in 10.0 mi Calm Calm - N/A   Clear
6:35 AM 15.8 °F - 8.6 °F 73% 30.22 in 10.0 mi Calm Calm - N/A   Partly Cloudy
6:55 AM 15.8 °F - 8.6 °F 73% 30.23 in 10.0 mi Calm Calm - N/A   Mostly Cloudy
7:15 AM 17.6 °F - 10.4 °F 73% 30.23 in 10.0 mi Calm Calm - N/A   Overcast
7:35 AM 17.6 °F - 10.4 °F 73% 30.24 in 10.0 mi Calm Calm - N/A   Overcast
7:55 AM 19.4 °F - 10.4 °F 68% 30.25 in 9.0 mi Calm Calm - N/A   Overcast
8:15 AM 19.4 °F 14.3 °F 10.4 °F 68% 30.25 in 8.0 mi North 3.5 mph - N/A   Overcast
8:35 AM 19.4 °F 14.3 °F 10.4 °F 68% 30.25 in 8.0 mi North 3.5 mph - N/A   Overcast
8:55 AM 19.4 °F 14.3 °F 10.4 °F 68% 30.25 in 5.0 mi North 3.5 mph - N/A   Overcast
9:15 AM 21.2 °F 13.6 °F 10.4 °F 63% 30.26 in 8.0 mi NNE 5.8 mph - N/A   Overcast
9:35 AM 21.2 °F 14.9 °F 10.4 °F 63% 30.26 in 10.0 mi North 4.6 mph - N/A   Overcast
9:55 AM 21.2 °F 16.4 °F 10.4 °F 63% 30.27 in 10.0 mi North 3.5 mph - N/A   Mostly Cloudy
10:35 AM 23.0 °F 15.8 °F 10.4 °F 59% 30.27 in 10.0 mi North 5.8 mph - N/A   Scattered Clouds
10:55 AM 24.8 °F - 10.4 °F 54% 30.27 in 10.0 mi Calm Calm - N/A   Partly Cloudy
11:15 AM 24.8 °F - 10.4 °F 54% 30.26 in 10.0 mi Calm Calm - N/A   Clear
11:35 AM 24.8 °F 20.5 °F 8.6 °F 50% 30.25 in 10.0 mi NW 3.5 mph - N/A   Clear
11:55 AM 24.8 °F 19.1 °F 10.4 °F 54% 30.25 in 10.0 mi WNW 4.6 mph - N/A   Clear
12:15 PM 26.6 °F 19.1 °F 10.4 °F 51% 30.24 in 10.0 mi WNW 6.9 mph - N/A   Clear
12:35 PM 26.6 °F - 10.4 °F 51% 30.23 in 10.0 mi Calm Calm - N/A   Clear
12:55 PM 26.6 °F 21.2 °F 10.4 °F 51% 30.23 in 10.0 mi NNW 4.6 mph - N/A   Clear
1:15 PM 26.6 °F 19.1 °F 10.4 °F 51% 30.23 in 10.0 mi WNW 6.9 mph - N/A   Clear
1:35 PM 26.6 °F 20.0 °F 10.4 °F 51% 30.22 in 10.0 mi North 5.8 mph - N/A   Clear
1:55 PM 28.4 °F 20.4 °F 10.4 °F 47% 30.22 in 10.0 mi NNE 8.1 mph - N/A   Clear
2:15 PM 26.6 °F 21.2 °F 10.4 °F 51% 30.23 in 10.0 mi West 4.6 mph - N/A   Clear
2:35 PM 26.6 °F 22.6 °F 10.4 °F 51% 30.23 in 10.0 mi NW 3.5 mph - N/A   Clear
3:15 PM 26.6 °F 21.2 °F 10.4 °F 51% 30.23 in 10.0 mi WNW 4.6 mph - N/A   Clear
3:35 PM 26.6 °F 21.2 °F 10.4 °F 51% 30.24 in 10.0 mi WNW 4.6 mph - N/A   Clear
3:55 PM 26.6 °F 19.1 °F 10.4 °F 51% 30.25 in 10.0 mi WNW 6.9 mph - N/A   Clear
4:15 PM 26.6 °F - 10.4 °F 51% 30.25 in 10.0 mi Calm Calm - N/A   Clear
4:35 PM 24.8 °F - 10.4 °F 54% 30.25 in 10.0 mi Calm Calm - N/A   Clear
4:55 PM 24.8 °F - 10.4 °F 54% 30.26 in 10.0 mi Calm Calm - N/A   Clear
5:15 PM 24.8 °F - 10.4 °F 54% 30.26 in 10.0 mi Calm Calm - N/A   Clear
5:35 PM 21.2 °F - 10.4 °F 63% 30.26 in 10.0 mi Calm Calm - N/A   Clear
5:55 PM 21.2 °F - 10.4 °F 63% 30.26 in 10.0 mi Calm Calm - N/A   Clear
6:15 PM 21.2 °F - 12.2 °F 68% 30.26 in 10.0 mi Calm Calm - N/A   Clear
6:35 PM 19.4 °F - 12.2 °F 74% 30.27 in 10.0 mi Calm Calm - N/A   Clear
6:55 PM 19.4 °F - 12.2 °F 74% 30.28 in 10.0 mi Calm Calm - N/A   Clear
7:15 PM 17.6 °F - 12.2 °F 79% 30.28 in 10.0 mi Calm Calm - N/A   Clear
7:35 PM 17.6 °F - 10.4 °F 73% 30.28 in 10.0 mi Calm Calm - N/A   Clear
7:55 PM 17.6 °F - 12.2 °F 79% 30.28 in 10.0 mi Calm Calm - N/A   Clear
8:15 PM 15.8 °F - 12.2 °F 86% 30.28 in 10.0 mi Calm Calm - N/A   Clear
8:35 PM 15.8 °F - 12.2 °F 86% 30.28 in 10.0 mi Calm Calm - N/A   Clear
8:55 PM 17.6 °F - 12.2 °F 79% 30.28 in 10.0 mi Calm Calm - N/A   Clear
9:15 PM 15.8 °F - 10.4 °F 79% 30.29 in 10.0 mi Calm Calm - N/A   Clear
9:35 PM 17.6 °F - 12.2 °F 79% 30.29 in 10.0 mi Calm Calm - N/A   Clear
9:55 PM 15.8 °F - 12.2 °F 86% 30.29 in 10.0 mi Calm Calm - N/A   Clear
10:15 PM 15.8 °F - 12.2 °F 86% 30.29 in 10.0 mi Calm Calm - N/A   Clear
10:35 PM 15.8 °F - 10.4 °F 79% 30.29 in 10.0 mi Calm Calm - N/A   Clear
10:55 PM 15.8 °F - 10.4 °F 79% 30.30 in 10.0 mi Calm Calm - N/A   Clear
11:15 PM 15.8 °F - 10.4 °F 79% 30.30 in 10.0 mi Calm Calm - N/A   Clear
11:35 PM 15.8 °F - 10.4 °F 79% 30.29 in 10.0 mi Calm Calm - N/A   Clear
11:55 PM 14.0 °F - 10.4 °F 86% 30.29 in 9.0 mi Calm Calm - N/A   Clear